Newport Airport, OR

9:56 PM PST on December 11, 2017 (GMT -0800)
Newport Municipal

Weather History for KONP - February, 2014

Change the Weather History Date:

Tuesday, February 11, 2014

  Actual Average Record
Temperature  
Mean Temperature 49 °F -  
Max Temperature 50 °F 50 °F 68 °F (2004)
Min Temperature 48 °F 39 °F 26 °F (1997)
Degree Days  
Heating Degree Days 16    
Moisture  
Dew Point 48 °F    
Average Humidity 96    
Maximum Humidity 100    
Minimum Humidity 87    
Precipitation  
Precipitation 1.05 in - - ()
Sea Level Pressure  
Sea Level Pressure 30.08 in    
Wind  
Wind Speed 18 mph (SSW)    
Max Wind Speed 43 mph    
Max Gust Speed 59 mph    
Visibility 4 miles    
Events Rain    
Averages and records for this station are not official NWS values.
T = Trace of Precipitation, MM = Missing Value Source: NWS Daily Summary

Daily Weather History Graph

Daily Weather History Graph

Search for Another Location

Airport or City:

Trip Planner

Search our weather history database for the weather conditions in past years. The results will help you decide how hot, cold, wet, or windy it might be!

Date:

Astronomy

Feb. 11, 2014 Rise Set
Actual Time 7:22 AM PST 5:39 PM PST
Civil Twilight 6:51 AM PST 6:09 PM PST
Nautical Twilight 6:17 AM PST 6:44 PM PST
Astronomical Twilight 5:43 AM PST 7:17 PM PST
Moon 3:02 PM PST (2/11) 5:06 AM PST (2/11)
Length of Visible Light 11h 17m
Length of Day
10h 17m
Waxing Gibbous, 91% of the Moon is Illuminated
Feb 11
Waxing Gibbous
Feb 14
Full
Feb 22
Last Quarter
Mar 1
New
Mar 8
First Quarter

Hourly Weather History & Observations

Time (PST) Temp. Dew Point Humidity Pressure Visibility Wind Dir Wind Speed Gust Speed Precip Events Conditions
12:15 AM 48.2 °F 48.2 °F 100% 30.21 in 3.0 mi SSW 19.6 mph 25.3 mph 0.01 in Rain Light Rain
12:35 AM 48.2 °F 48.2 °F 100% 30.21 in 3.0 mi SSW 15.0 mph 24.2 mph 0.04 in Rain Light Rain
12:55 AM 48.2 °F 48.2 °F 100% 30.21 in 3.0 mi SW 16.1 mph - 0.04 in   Drizzle
1:15 AM 48.2 °F 48.2 °F 100% 30.21 in 2.5 mi SSW 17.3 mph 26.5 mph 0.04 in Rain Rain
1:35 AM 48.2 °F 48.2 °F 100% 30.21 in 4.0 mi SSW 15.0 mph 24.2 mph 0.06 in Rain Light Rain
1:55 AM 48.2 °F 48.2 °F 100% 30.21 in 3.0 mi SSW 13.8 mph 18.4 mph 0.08 in Rain Heavy Rain
2:15 AM 48.2 °F 48.2 °F 100% 30.21 in 2.5 mi SSW 12.7 mph - 0.01 in   Heavy Drizzle
2:35 AM 48.2 °F 48.2 °F 100% 30.21 in 2.0 mi SW 13.8 mph 18.4 mph 0.11 in Rain Heavy Rain
2:55 AM 48.2 °F 48.2 °F 100% 30.21 in 2.5 mi SSW 13.8 mph - 0.16 in Rain Rain
3:15 AM 48.2 °F 48.2 °F 100% 30.21 in 2.5 mi SSW 15.0 mph - 0.02 in Rain Rain
3:35 AM 48.2 °F 48.2 °F 100% 30.21 in 2.5 mi SW 10.4 mph - 0.06 in Rain Heavy Rain
3:55 AM 48.2 °F 48.2 °F 100% 30.20 in 2.0 mi SSW 16.1 mph 25.3 mph 0.07 in   Light Drizzle
4:15 AM 48.2 °F 48.2 °F 100% 30.20 in 1.8 mi SSW 16.1 mph 24.2 mph 0.01 in Rain Heavy Rain
4:35 AM 48.2 °F 48.2 °F 100% 30.19 in 2.5 mi SSW 15.0 mph 20.7 mph 0.01 in   Drizzle
4:55 AM 48.2 °F 48.2 °F 100% 30.20 in 2.0 mi SSW 15.0 mph - 0.01 in Rain Light Rain
5:15 AM 48.2 °F 48.2 °F 100% 30.21 in 2.5 mi SSW 16.1 mph 21.9 mph 0.01 in Rain Rain
5:35 AM 48.2 °F 48.2 °F 100% 30.20 in 2.0 mi SSW 13.8 mph 20.7 mph 0.01 in   Drizzle
5:55 AM 48.2 °F 48.2 °F 100% 30.19 in 0.8 mi SSW 15.0 mph 19.6 mph 0.03 in Rain Rain
6:15 AM 48.2 °F 48.2 °F 100% 30.18 in 1.0 mi SSW 15.0 mph - N/A   Drizzle
6:35 AM 48.2 °F 48.2 °F 100% 30.17 in 1.5 mi SSW 16.1 mph 21.9 mph N/A Rain Rain
6:55 AM 48.2 °F 48.2 °F 100% - 2.5 mi SSW 13.8 mph 20.7 mph 0.01 in Rain Light Rain
7:15 AM 48.2 °F 48.2 °F 100% 30.18 in 3.0 mi SSW 13.8 mph 20.7 mph N/A Rain Rain
7:35 AM 48.2 °F 48.2 °F 100% 30.16 in 1.8 mi SSW 13.8 mph - 0.09 in Rain Light Rain
7:55 AM 50.0 °F 50.0 °F 100% 30.15 in 1.5 mi South 16.1 mph 25.3 mph 0.09 in   Drizzle
8:15 AM 50.0 °F 50.0 °F 100% 30.16 in 0.8 mi South 19.6 mph 27.6 mph N/A Rain Light Rain
8:35 AM 50.0 °F 50.0 °F 100% 30.16 in 0.8 mi SSW 19.6 mph 27.6 mph N/A Rain Light Rain
8:55 AM 50.0 °F 50.0 °F 100% 30.17 in 0.8 mi SSW 20.7 mph 26.5 mph N/A   Light Drizzle
9:15 AM 50.0 °F 50.0 °F 100% 30.17 in 1.0 mi South 18.4 mph 24.2 mph N/A   Light Drizzle
9:35 AM 50.0 °F 50.0 °F 100% 30.17 in 1.2 mi South 17.3 mph 25.3 mph N/A   Drizzle
9:55 AM 50.0 °F 50.0 °F 100% 30.18 in 2.0 mi South 17.3 mph 23.0 mph 0.01 in   Heavy Drizzle
10:15 AM 50.0 °F 50.0 °F 100% 30.17 in 4.0 mi South 17.3 mph 25.3 mph N/A   Light Drizzle
10:35 AM 50.0 °F 50.0 °F 100% 30.18 in 5.0 mi South 16.1 mph 23.0 mph N/A   Drizzle
10:55 AM 50.0 °F 50.0 °F 100% 30.17 in 3.0 mi South 17.3 mph 26.5 mph 0.02 in Rain Rain
11:15 AM 50.0 °F 50.0 °F 100% 30.17 in 4.0 mi South 17.3 mph 24.2 mph 0.01 in Rain Light Rain
11:35 AM 50.0 °F 50.0 °F 100% 30.16 in 2.5 mi SSW 18.4 mph 28.8 mph 0.03 in Rain Light Rain
11:55 AM 50.0 °F 50.0 °F 100% 30.15 in 3.0 mi SSW 19.6 mph 27.6 mph 0.03 in Rain Light Rain
12:15 PM 50.0 °F 48.2 °F 94% 30.14 in 5.0 mi South 20.7 mph 27.6 mph N/A Rain Light Rain
12:35 PM 50.0 °F 48.2 °F 94% 30.14 in 5.0 mi South 23.0 mph 27.6 mph N/A Rain Rain
12:55 PM 50.0 °F 48.2 °F 94% 30.13 in 4.0 mi South 20.7 mph 29.9 mph N/A Rain Light Rain
1:15 PM 50.0 °F 48.2 °F 94% 30.12 in 5.0 mi South 21.9 mph 26.5 mph 0.01 in Rain Light Rain
1:35 PM 50.0 °F 50.0 °F 100% 30.11 in 4.0 mi South 18.4 mph 28.8 mph 0.01 in Rain Light Rain
1:55 PM 50.0 °F 48.2 °F 94% 30.11 in 5.0 mi South 19.6 mph 29.9 mph 0.02 in Rain Light Rain
2:15 PM 50.0 °F 48.2 °F 94% 30.09 in 5.0 mi SSW 23.0 mph 32.2 mph 0.01 in Rain Rain
2:35 PM 50.0 °F 48.2 °F 94% 30.08 in 7.0 mi South 20.7 mph 25.3 mph 0.02 in Rain Light Rain
2:55 PM 50.0 °F 48.2 °F 94% 30.07 in 7.0 mi South 13.8 mph 24.2 mph 0.02 in   Drizzle
3:15 PM 50.0 °F 48.2 °F 94% - 7.0 mi South 13.8 mph 25.3 mph N/A   Light Drizzle
3:35 PM 50.0 °F 48.2 °F 94% 30.05 in 7.0 mi South 15.0 mph 19.6 mph N/A   Drizzle
3:55 PM 50.0 °F 46.4 °F 87% 30.05 in 10.0 mi South 11.5 mph 18.4 mph N/A Rain Light Rain
4:15 PM 50.0 °F 46.4 °F 87% 30.04 in 10.0 mi South 12.7 mph - N/A   Drizzle
4:35 PM 50.0 °F 46.4 °F 87% 30.03 in 5.0 mi South 12.7 mph - 0.01 in Rain Rain
4:55 PM 50.0 °F 46.4 °F 87% 30.02 in 4.0 mi SSW 20.7 mph 27.6 mph 0.02 in Rain Light Rain
5:15 PM 50.0 °F 46.4 °F 87% 30.02 in 4.0 mi South 23.0 mph 32.2 mph 0.02 in Rain Rain
5:35 PM 50.0 °F 46.4 °F 87% 30.02 in 2.5 mi South 23.0 mph 29.9 mph 0.05 in Rain Rain
5:55 PM 48.2 °F 46.4 °F 93% 30.00 in 3.0 mi South 23.0 mph 32.2 mph 0.09 in Rain Rain
6:15 PM 48.2 °F 46.4 °F 93% 29.98 in 4.0 mi South 27.6 mph 35.7 mph 0.03 in Rain Rain
6:35 PM 48.2 °F 46.4 °F 93% 29.96 in 5.0 mi South 20.7 mph 36.8 mph 0.06 in Rain Rain
6:55 PM 48.2 °F 46.4 °F 93% 29.94 in 7.0 mi South 16.1 mph 27.6 mph 0.07 in Rain Light Rain
7:15 PM 48.2 °F 46.4 °F 93% 29.93 in 10.0 mi South 5.8 mph - 0.01 in Rain Rain
7:35 PM 48.2 °F 46.4 °F 93% 29.92 in 7.0 mi SE 6.9 mph - 0.03 in Rain Rain
7:55 PM 48.2 °F 46.4 °F 93% 29.90 in 10.0 mi SE 5.8 mph - 0.04 in Rain Rain
8:15 PM 48.2 °F 46.4 °F 93% 29.88 in 7.0 mi South 16.1 mph 27.6 mph 0.01 in Rain Rain
8:35 PM 50.0 °F 46.4 °F 87% 29.86 in 5.0 mi South 18.4 mph 31.1 mph 0.04 in Rain Light Rain
8:55 PM 50.0 °F 46.4 °F 87% 29.85 in 5.0 mi South 25.3 mph 38.0 mph 0.05 in Rain Light Rain
9:15 PM 50.0 °F 46.4 °F 87% 29.83 in 4.0 mi South 25.3 mph 38.0 mph 0.03 in Rain Rain
9:35 PM 48.2 °F 46.4 °F 93% 29.82 in 3.0 mi South 29.9 mph 49.5 mph 0.06 in Rain Rain
9:55 PM 48.2 °F 46.4 °F 93% 29.82 in 3.0 mi South 35.7 mph 42.6 mph 0.08 in Rain Rain
10:15 PM 48.2 °F 46.4 °F 93% 29.82 in 3.0 mi South 29.9 mph 49.5 mph 0.02 in Rain Rain
10:35 PM 48.2 °F 46.4 °F 93% 29.82 in 2.0 mi SSW 33.4 mph 52.9 mph 0.04 in Rain Rain
10:55 PM 48.2 °F 46.4 °F 93% 29.82 in 1.8 mi South 38.0 mph 58.7 mph 0.08 in Rain Rain
11:15 PM 48.2 °F 46.4 °F 93% 29.80 in 2.0 mi South 42.6 mph 50.6 mph 0.01 in Rain Light Rain
11:35 PM 48.2 °F 46.4 °F 93% 29.80 in 2.5 mi SSW 41.4 mph 58.7 mph 0.02 in Rain Light Rain
11:55 PM 48.2 °F 48.2 °F 100% 29.80 in 2.0 mi South 41.4 mph 58.7 mph 0.03 in Rain Rain